Location: Unspecified
(47.9110°N, 14.3980°E)
Time: 15:45:10
(UTC+00:00)

USA 238 - Pass Details

Date: 06 August 2020
Orbit: 1006 x 1206 km, 63.4° (Epoch: 17 September)

Event Time Altitude Azimuth Distance (km) Brightness Sun altitude
Exits shadow 22:02:05 11° 231° (SW) 2,764 5.6 -24.0°
Maximum altitude 22:08:33 70° 314° (NW) 1,116 3.9 -24.4°
Drops below altitude 10° 22:15:30 10° 39° (NE) 2,946 6.5 -24.7°
Sets 22:18:16 0° 42° (NE) 3,937 7.1 -24.8°
